Theta_e
327 327 329 330 331 330 329 329 329 330 330 329 329 329 331 331 330 330 332 332 331 330 330 330 329 329 329 328 328 330 330 328 327 326 325 325 324 324 324 325 325 325 326 325 323 325 323 322 321 320 319 318 317 316 315 315 316 315 315 316 312 309 309 310 310 310 308 307 308 310 313 317 316 313 312 310 309 309 308 307 308 307 307 307 307
326 326 328 330 330 330 330 329 330 328 329 329 328 329 331 331 330 331 331 330 329 330 329 329 329 330 328 328 329 328 326 325 323 322 322 323 322 322 322 322 322 322 323 322 321 321 320 319 319 318 317 316 316 316 315 317 313 313 312 311 312 309 307 309 310 308 306 305 305 308 308 310 314 311 311 310 308 308 306 305 306 306 305 306 306
324 325 327 329 330 330 330 330 329 330 329 330 330 330 331 331 331 331 331 329 329 330 328 327 327 328 329 329 329 326 326 325 323 323 322 320 320 320 320 319 319 318 319 320 318 318 317 316 316 315 315 317 313 312 312 311 311 310 310 309 306 308 308 310 309 309 304 305 308 307 302 303 307 307 307 309 308 306 305 304 305 304 304 304 304
322 324 325 328 329 329 329 329 329 330 329 330 330 331 331 331 331 331 330 329 329 330 329 328 329 329 331 329 326 324 322 323 321 320 319 318 317 318 318 317 317 317 317 317 316 315 315 315 315 314 314 314 312 310 310 309 309 309 308 309 306 304 304 306 309 308 308 304 300 303 303 299 296 299 301 304 307 305 304 302 303 302 303 303 303
322 323 325 326 327 328 328 329 330 329 329 330 331 331 331 331 331 330 330 329 329 330 329 330 331 329 327 325 323 322 321 320 317 316 317 318 316 315 315 316 316 315 315 315 316 313 314 314 314 314 313 313 312 310 309 309 309 308 308 307 305 303 303 303 307 308 308 309 305 300 298 297 297 299 300 296 303 303 302 301 303 301 301 303 301
323 323 324 326 327 328 328 329 329 329 329 331 332 332 332 331 331 330 329 329 329 329 330 330 330 326 323 321 319 319 317 316 313 312 313 313 313 314 314 314 314 314 313 313 315 314 313 313 313 313 312 312 311 310 309 309 308 308 307 306 305 305 304 303 303 307 307 307 306 305 302 298 297 297 296 292 301 301 301 301 299 299 300 301 300
324 324 325 325 326 327 327 328 329 329 330 333 333 332 332 331 331 330 329 329 329 329 330 331 328 326 324 323 322 319 317 316 316 315 314 313 313 312 312 312 312 312 313 313 312 313 312 312 312 312 311 311 312 309 308 308 308 309 309 307 306 306 303 301 301 301 302 304 304 304 304 303 300 297 293 294 292 295 297 298 297 298 299 299 300
323 323 324 326 326 327 326 329 330 330 332 333 331 331 331 331 330 329 330 330 329 329 330 330 327 326 324 323 322 320 317 315 315 314 314 314 311 310 310 310 310 310 310 311 312 312 311 310 311 311 311 311 311 308 307 307 308 308 308 306 307 305 303 301 300 301 299 300 304 301 302 302 300 299 297 295 294 290 290 295 296 296 297 298 299
324 323 324 325 325 327 328 328 330 331 332 331 331 331 331 330 330 330 330 329 328 329 330 330 329 327 325 323 320 318 317 316 316 316 313 312 310 309 309 308 309 309 309 309 309 311 313 309 309 309 309 309 311 307 307 307 306 305 305 304 304 304 305 303 301 300 300 299 299 299 299 298 298 298 297 297 294 289 288 290 290 294 294 295 297
325 324 325 326 326 327 329 330 330 331 331 331 331 331 330 329 329 329 328 329 328 329 330 330 329 326 323 321 318 317 316 315 314 312 311 310 308 307 307 307 307 307 307 308 308 309 308 309 308 308 308 309 309 305 305 305 305 305 305 304 303 302 303 302 301 300 300 299 299 298 296 296 295 294 294 294 293 293 288 288 290 289 289 292 296
324 325 326 327 328 328 329 328 329 330 330 330 329 330 330 329 328 327 328 328 328 328 329 329 328 325 322 320 318 316 315 314 312 310 309 307 306 306 305 305 305 305 306 306 306 307 308 310 307 307 308 311 307 305 304 304 304 304 304 304 303 302 301 300 300 300 299 298 297 297 295 295 293 292 291 292 291 289 288 288 289 290 290 290 292
324 324 326 326 326 327 328 327 327 328 329 328 328 328 328 328 327 326 327 327 327 329 329 328 327 324 322 321 319 317 315 312 310 308 308 307 306 305 304 304 304 304 304 304 305 306 306 306 308 305 306 304 304 304 304 304 304 304 303 303 302 301 301 301 298 298 297 297 296 296 295 295 294 293 294 293 291 291 289 288 288 290 290 291 293
322 324 325 325 325 325 325 326 326 326 327 327 327 327 327 326 326 325 325 326 326 326 326 325 323 322 321 320 319 317 314 312 310 309 308 306 305 304 303 302 303 303 303 304 304 305 305 304 304 304 304 305 304 304 304 304 303 303 302 302 301 300 299 299 298 297 297 296 295 295 295 294 294 294 294 293 293 292 290 288 289 290 287 288 290
322 324 325 325 325 325 326 326 326 326 326 326 326 325 325 325 324 323 322 323 322 322 321 321 322 322 322 320 318 316 312 311 310 308 306 305 305 304 303 303 302 302 302 303 304 305 305 305 304 304 304 305 305 304 304 304 303 302 301 301 300 300 299 298 297 297 296 296 296 295 294 294 293 295 294 294 292 291 290 289 289 289 288 288 289
322 324 325 325 325 325 325 326 326 325 326 325 325 324 323 322 322 320 319 319 319 318 319 319 318 318 317 317 315 313 311 310 309 308 306 305 304 304 303 303 302 302 303 304 305 304 304 304 304 303 303 303 303 303 303 302 303 303 302 301 300 299 299 298 296 296 296 295 295 295 296 295 294 294 294 294 294 293 292 291 289 287 287 286 287
323 323 324 325 325 326 325 325 325 324 325 324 323 322 320 320 319 318 317 316 316 316 316 315 314 313 313 313 312 313 313 310 309 308 306 305 304 303 303 302 302 302 303 303 303 303 302 302 302 302 302 302 302 302 302 301 301 301 300 300 300 302 298 297 296 295 295 294 294 294 294 294 295 295 295 294 293 294 293 292 291 288 286 284 286
322 323 323 324 325 325 325 325 324 324 323 322 321 320 318 317 316 315 314 315 315 314 313 312 311 311 311 311 311 310 309 307 306 305 305 305 304 303 303 302 303 302 303 303 302 302 301 301 301 301 301 301 301 301 301 301 300 300 299 299 298 298 298 296 296 295 295 294 294 294 294 294 294 294 294 294 294 293 293 292 291 289 289 286 284
323 323 323 324 324 324 324 324 324 323 322 320 319 318 316 315 314 313 312 312 312 312 312 312 311 310 309 309 309 308 307 306 305 305 305 304 303 304 303 303 302 303 303 303 301 301 301 304 300 300 300 301 300 300 300 300 300 299 299 299 298 298 297 297 297 296 295 296 296 294 294 293 294 293 292 293 293 293 291 292 291 291 291 287 286
321 322 322 323 323 323 323 322 323 322 321 319 318 317 316 315 314 313 311 311 311 311 311 311 311 309 309 308 307 307 306 306 305 305 304 304 302 302 302 302 302 302 302 299 299 299 299 299 299 299 299 299 299 300 300 300 299 298 299 298 298 297 296 295 295 296 295 295 294 293 293 292 293 292 292 292 292 293 291 292 291 291 291 289 288
321 321 322 322 323 323 322 321 320 320 318 317 316 315 314 314 313 311 311 310 310 309 309 308 308 308 308 307 307 306 306 305 305 304 303 302 302 302 301 300 300 300 298 298 298 298 298 298 298 298 298 298 298 299 299 299 298 298 297 297 297 296 295 295 294 295 296 294 293 293 293 292 291 291 291 291 290 292 292 291 291 291 290 290 290
320 321 322 322 322 322 321 321 320 319 317 316 315 314 313 313 311 311 309 308 308 308 308 308 308 308 307 306 305 305 304 305 303 303 302 302 302 302 300 299 299 297 297 297 297 297 297 298 298 299 297 297 297 297 298 298 298 297 297 296 296 296 295 294 296 294 294 294 294 293 292 291 291 290 290 290 291 290 291 290 292 290 290 290 289
320 321 322 322 322 321 320 319 318 316 315 314 314 313 312 311 311 310 310 309 308 308 308 307 307 307 305 305 304 304 304 303 303 302 302 301 300 300 299 298 297 297 297 296 296 296 296 296 296 296 296 296 296 296 296 297 298 297 296 297 296 295 294 293 293 293 293 294 292 292 291 291 291 290 289 290 290 290 290 289 289 291 289 290 290
321 321 321 322 322 320 319 318 316 315 314 313 313 312 311 311 310 310 310 309 309 308 308 307 306 305 304 303 303 303 303 302 302 301 300 300 299 299 299 296 296 295 296 296 295 295 295 295 295 294 294 294 294 294 295 296 296 296 296 295 296 294 294 293 293 292 292 292 292 292 290 291 291 289 289 289 289 289 290 289 289 290 289 289 290
321 321 321 321 321 320 318 316 315 313 313 312 312 312 311 310 310 310 309 308 308 307 307 306 305 304 303 303 302 302 301 301 300 300 299 299 298 297 298 296 295 295 295 295 294 294 294 294 294 293 293 293 293 294 294 294 295 296 295 295 294 294 293 293 293 292 292 292 290 290 290 290 290 288 288 288 288 288 288 289 289 289 289 289 290
319 319 319 319 319 318 317 316 314 313 312 312 311 311 310 310 310 309 308 308 307 307 306 305 304 303 302 302 301 301 300 300 299 299 298 298 297 297 297 295 295 295 294 294 295 294 293 293 293 292 292 292 292 293 293 293 293 294 295 294 293 293 293 293 293 294 298 292 292 290 291 290 289 287 287 287 288 287 289 289 288 289 289 289 290
319 318 318 317 317 317 317 315 314 313 312 311 311 310 310 310 309 309 308 307 306 305 305 304 303 302 302 301 300 300 300 299 299 298 298 298 297 296 296 296 295 294 293 293 293 293 293 292 291 291 291 291 291 291 292 292 292 293 294 294 294 293 293 293 292 293 292 292 291 290 291 290 289 288 287 288 287 287 289 289 288 289 289 289 288
318 318 318 318 316 316 316 315 314 312 311 311 310 310 310 309 308 308 308 306 305 304 303 303 302 301 301 300 300 299 299 299 299 298 298 297 296 295 295 295 295 294 293 293 292 292 293 291 291 291 291 291 291 291 290 290 291 292 293 293 293 293 293 292 292 292 292 291 291 291 291 290 289 289 288 288 288 288 290 289 291 289 289 288 288
318 318 317 316 316 315 315 314 313 312 311 311 310 310 309 308 307 307 307 305 304 303 303 302 301 300 300 300 299 299 299 298 298 298 297 297 296 295 295 295 295 293 292 292 291 292 292 291 291 291 291 292 291 290 289 289 290 290 292 292 293 293 293 292 292 292 292 292 292 292 291 290 289 289 289 290 289 290 290 290 289 289 289 289 288
316 317 317 316 315 315 314 314 312 311 310 310 309 309 309 308 307 307 306 304 304 303 302 301 301 300 299 299 299 299 299 299 299 298 297 296 296 295 295 294 294 293 294 291 291 290 290 289 289 290 290 291 292 292 291 290 290 289 289 292 292 293 293 293 292 291 291 291 292 292 291 290 295 299 300 299 298 297 293 290 290 289 290 289 288
316 316 317 317 316 315 314 313 312 311 310 309 308 308 308 307 306 305 304 303 303 302 301 301 300 299 299 299 299 299 298 298 298 297 297 296 295 295 294 293 292 292 292 292 290 290 289 289 289 289 289 291 291 292 295 296 298 291 290 292 293 293 292 291 293 292 292 292 291 290 296 302 300 300 300 298 295 295 296 294 292 290 289 288 287
316 316 316 316 316 315 314 312 311 310 309 309 308 308 307 307 305 304 303 303 303 302 301 300 300 299 299 298 298 298 297 297 297 297 297 296 295 294 293 292 292 291 291 292 290 289 288 288 289 289 289 290 290 292 294 292 294 296 293 293 293 292 291 290 291 291 290 294 292 291 289 295 298 296 296 296 294 293 293 293 294 295 295 291 288
316 316 316 316 315 314 314 312 311 310 309 308 307 307 307 305 305 304 303 303 302 302 301 300 299 299 298 298 297 297 297 297 297 297 296 295 294 293 292 291 290 290 290 289 288 288 288 288 289 289 289 290 290 295 292 293 294 294 296 294 292 292 292 289 289 289 290 291 290 289 290 291 291 294 294 291 293 293 293 293 292 293 292 292 292
316 316 315 315 315 314 314 313 311 310 309 309 308 307 305 305 305 305 304 303 302 301 300 300 299 299 298 297 297 297 296 297 297 297 296 294 292 292 291 290 289 290 288 288 287 287 287 287 288 288 288 289 288 293 292 293 293 292 293 294 292 291 292 290 289 289 289 289 289 292 291 292 291 296 295 290 289 290 293 293 293 293 292 292 290
316 316 316 316 315 315 314 313 312 311 310 309 309 308 307 306 306 305 303 302 302 301 300 299 299 298 298 297 297 297 296 296 297 296 295 293 292 291 290 290 290 289 288 287 287 287 287 287 287 288 288 287 288 293 292 292 292 291 292 293 289 290 290 289 290 289 289 288 289 290 288 290 290 290 289 290 290 289 288 288 288 287 287 289 290
316 316 316 315 315 314 313 312 311 311 310 309 309 308 307 306 305 304 303 302 301 301 300 300 299 298 298 297 297 297 296 296 296 296 295 293 292 291 291 291 289 288 287 287 287 286 287 288 287 286 288 287 289 292 291 292 291 291 291 291 289 291 290 289 288 289 289 289 289 289 288 288 289 289 291 292 290 288 288 288 287 287 287 287 286
317 316 316 315 314 314 313 312 312 311 309 309 307 308 306 305 306 304 303 302 302 301 301 300 299 298 298 298 297 296 296 296 296 295 295 294 293 292 291 290 289 287 287 288 287 288 287 286 286 286 287 285 287 291 291 291 291 291 292 291 288 288 288 288 288 288 289 289 289 290 289 289 288 288 292 292 291 291 287 286 286 286 286 286 286
317 317 316 316 315 314 313 312 311 310 309 308 307 307 306 305 305 304 303 302 302 301 301 300 299 299 298 298 297 296 296 296 296 295 294 294 293 292 291 291 289 288 287 287 287 286 286 285 286 286 286 284 286 290 291 291 291 291 290 287 287 288 287 286 287 287 287 288 288 292 291 288 288 288 292 290 290 293 286 286 286 285 285 285 286
316 316 315 314 314 313 312 312 310 309 308 309 308 306 306 305 304 303 302 302 301 301 301 300 299 298 298 297 297 297 296 296 295 295 294 294 293 293 292 293 289 288 287 287 287 287 285 286 285 284 286 286 285 290 291 291 291 291 291 286 286 287 285 286 286 287 287 286 288 298 297 289 288 289 291 290 290 291 286 286 285 284 284 284 285
315 315 314 313 312 313 312 312 310 308 308 308 308 306 305 304 303 302 302 301 301 301 301 300 299 298 298 297 297 297 296 296 295 295 295 294 293 293 293 292 291 289 289 289 291 287 286 286 285 286 296 288 285 290 291 290 291 292 290 284 286 286 286 283 284 286 286 287 287 291 294 293 291 291 289 290 290 290 286 285 285 283 284 283 285
313 313 313 312 312 311 310 310 309 308 308 308 307 306 305 304 304 303 302 301 301 301 301 300 299 298 298 298 298 297 296 296 295 294 294 294 294 294 292 292 292 291 290 289 290 288 286 286 287 289 290 285 285 287 290 291 291 291 292 287 285 286 286 285 284 288 288 286 286 287 291 290 290 289 289 289 290 290 286 286 284 284 284 284 286
312 312 308 311 311 312 311 310 310 308 307 308 307 306 305 304 304 303 302 301 302 301 300 299 298 297 297 297 297 297 296 296 295 295 295 295 294 293 292 292 292 292 290 290 290 288 287 287 287 288 287 286 287 285 288 290 291 291 291 290 283 284 283 283 282 285 282 284 286 286 286 291 290 289 289 289 290 290 290 288 285 285 285 288 288
311 309 310 311 311 310 310 310 309 307 307 307 307 305 304 304 303 302 302 302 302 301 301 299 297 298 298 297 297 297 297 296 296 295 294 293 293 294 293 293 292 291 291 290 289 289 287 287 286 287 288 286 290 296 285 291 290 291 290 291 286 287 285 284 284 283 282 283 284 285 286 290 290 289 289 289 290 289 289 289 287 288 288 288 287
309 308 310 311 310 310 309 309 308 307 307 307 307 305 304 303 303 302 303 302 302 301 299 298 297 297 297 297 296 297 296 296 295 295 295 293 293 293 292 292 292 291 291 290 289 287 286 286 286 287 287 287 286 290 293 290 291 290 290 290 290 288 289 289 285 286 284 285 284 285 287 291 289 289 289 289 289 289 290 287 288 288 288 288 288
311 310 310 310 310 309 309 308 307 307 307 307 306 305 304 303 303 304 302 302 301 300 299 298 297 297 297 297 297 297 297 296 295 295 295 293 293 292 292 292 292 292 291 290 287 288 286 287 288 288 290 288 287 287 292 293 290 290 289 289 289 289 290 287 287 284 283 284 285 284 288 289 289 289 289 289 289 289 287 288 288 288 288 288 285
309 309 309 309 310 308 308 306 306 306 306 306 306 305 303 303 303 303 301 300 300 299 298 298 297 297 297 297 297 297 297 296 296 295 294 294 293 293 292 291 291 290 290 289 287 289 288 288 288 289 289 290 290 287 286 289 291 290 289 289 289 289 289 289 286 285 288 287 289 289 289 289 289 289 289 289 289 289 288 288 288 288 290 284 284
309 308 308 309 309 308 307 305 305 306 306 306 307 306 303 304 303 302 301 300 300 299 298 297 296 296 296 296 296 296 297 296 296 296 295 294 294 293 292 291 290 290 290 289 288 288 288 289 289 289 289 290 289 286 286 285 291 292 291 289 289 289 291 291 290 287 289 289 288 289 289 288 289 289 288 285 285 287 288 288 288 289 284 283 283
308 308 307 308 308 307 306 305 304 305 306 306 306 306 306 304 302 301 301 300 300 299 298 297 296 296 296 296 296 296 296 296 296 296 295 295 294 294 293 292 291 290 290 290 290 290 290 289 290 289 289 290 288 285 284 284 283 282 283 286 287 286 291 289 288 285 287 285 287 289 287 288 288 289 287 288 287 288 286 286 284 283 284 283 283
308 307 308 308 308 306 305 304 304 304 305 306 306 305 305 303 302 301 301 300 299 298 297 296 296 296 296 297 296 293 295 296 295 295 294 294 294 294 293 293 292 292 291 291 291 290 290 291 290 289 289 288 288 285 285 285 284 284 284 282 282 286 282 282 283 283 284 286 286 288 287 284 283 284 284 284 283 284 284 283 284 283 283 283 286
306 306 307 308 307 306 305 304 304 304 305 305 305 305 305 303 301 301 301 300 299 296 297 296 296 296 296 296 296 296 297 296 295 295 295 295 294 293 294 293 293 294 294 293 292 291 292 292 292 291 290 289 288 287 288 288 287 287 284 283 283 282 281 281 287 289 285 284 282 282 283 283 281 283 282 282 283 283 283 283 283 284 283 283 283
306 306 307 306 306 305 304 304 304 304 304 304 304 304 304 303 302 301 301 299 298 297 297 296 296 296 296 296 296 296 297 296 296 295 294 291 288 292 293 294 293 294 293 293 293 293 293 292 292 292 293 292 290 291 291 289 288 288 288 287 287 287 287 286 288 288 287 281 280 279 280 280 281 279 280 279 281 280 281 282 283 285 283 282 283
304 304 304 304 304 304 304 303 304 304 305 304 304 303 302 302 302 301 300 300 298 297 296 297 296 296 295 296 296 296 297 297 296 295 294 293 290 288 287 288 290 292 292 291 291 292 292 291 294 292 292 292 292 291 290 289 288 288 288 288 288 288 288 288 288 283 279 279 278 279 280 279 278 280 277 279 280 278 279 279 281 281 281 283 282
Wind_Speed
7 7 7 6 5 5 6 6 7 8 7 7 7 7 8 8 7 7 5 5 7 7 6 7 7 7 5 6 6 5 6 6 6 6 5 5 4 5 5 5 5 5 5 5 5 6 6 6 7 6 5 6 6 5 4 5 4 3 3 5 5 6 7 7 8 2 3 3 3 3 4 4 7 8 10 9 9 7 7 8 8 9 9 9 9
9 8 8 8 7 8 6 7 9 10 7 7 8 8 7 7 8 8 5 4 5 6 6 5 4 5 7 6 6 6 6 6 6 5 5 5 5 5 5 5 6 6 5 5 5 5 7 7 6 6 5 6 6 5 5 6 6 6 3 4 4 6 6 7 9 3 5 2 2 5 4 1 3 7 10 8 8 8 8 9 8 9 10 9 8
9 9 7 8 9 9 7 7 7 8 10 9 6 7 7 7 7 8 6 5 5 5 5 6 4 4 6 5 7 6 5 5 6 4 4 6 6 5 5 5 6 6 5 5 6 6 7 7 6 5 6 5 6 7 6 7 6 6 5 3 3 3 5 6 9 7 2 2 2 2 3 4 2 3 4 8 7 8 8 10 9 9 10 9 8
13 12 11 10 9 9 7 7 7 6 7 7 8 8 7 7 7 7 7 5 6 5 6 6 7 8 7 8 6 6 6 5 6 4 4 6 7 5 6 5 6 6 5 6 6 6 6 7 6 6 6 5 6 7 6 7 6 7 7 7 3 6 6 8 9 9 7 4 4 3 1 2 4 4 7 4 3 7 9 9 9 9 9 9 8
12 13 10 10 11 11 10 8 7 6 6 7 8 7 5 7 7 7 7 7 6 7 8 9 10 9 9 9 8 9 6 5 6 5 4 4 5 6 5 5 6 6 5 6 6 6 6 6 7 6 7 6 6 7 6 6 6 6 6 7 7 4 6 5 9 10 12 9 3 3 4 5 1 4 6 2 2 6 8 8 9 10 9 8 8
12 13 11 10 10 10 9 9 9 7 7 6 6 6 6 6 7 7 6 6 7 7 8 9 9 11 10 9 8 6 6 5 4 4 3 4 5 3 5 5 5 5 5 6 6 6 7 7 7 7 7 7 6 6 6 7 8 8 7 6 7 6 5 7 7 7 9 11 11 7 3 2 3 4 4 4 5 1 5 6 10 10 8 8 8
11 10 10 10 9 10 9 8 8 7 6 6 6 6 6 7 7 7 6 6 6 7 8 8 9 8 9 9 9 8 8 4 4 4 4 4 5 6 5 5 5 6 6 6 6 6 7 7 7 7 7 6 6 7 7 7 7 7 6 8 7 6 6 9 7 5 5 9 8 7 7 5 3 4 4 3 5 5 4 8 7 9 8 7 8
12 13 11 10 10 11 10 9 8 8 7 7 7 6 8 8 8 7 6 7 6 8 8 8 9 8 8 7 6 6 6 7 6 5 4 4 6 5 5 5 5 5 6 6 6 6 7 7 7 7 7 6 7 7 7 6 7 7 7 7 7 7 8 8 8 8 7 5 5 7 6 5 5 6 4 2 0 6 5 2 1 11 7 4 7
13 13 14 12 10 10 9 8 9 9 8 8 7 7 7 7 8 7 7 8 7 8 8 7 8 8 8 7 6 5 7 7 6 5 5 4 7 5 5 4 4 5 6 6 6 6 7 7 7 7 7 7 7 7 7 7 8 8 8 8 8 8 8 7 9 8 8 7 5 6 6 6 6 6 6 5 5 5 4 7 12 6 4 4 7
12 13 13 12 10 9 9 7 9 8 7 7 7 7 7 7 8 9 8 7 8 9 8 8 7 7 7 7 9 7 7 7 6 6 5 5 6 5 4 4 4 5 6 5 6 6 7 7 7 7 7 7 7 7 7 7 7 7 7 7 8 10 8 9 9 8 7 7 7 6 7 6 6 7 8 8 4 5 3 8 9 12 11 8 6
11 12 11 10 11 11 10 9 9 8 7 8 7 7 7 8 8 9 8 7 8 9 9 9 7 7 8 8 10 10 9 9 8 6 6 5 6 4 4 3 3 4 5 5 6 6 7 7 7 7 7 7 7 7 6 6 6 7 8 9 10 10 9 9 10 8 7 8 7 7 7 7 6 7 6 6 4 4 5 5 7 5 7 9 6
11 11 10 11 12 11 11 10 9 10 9 9 7 7 7 8 8 9 9 9 8 8 9 9 8 7 7 9 10 10 10 8 9 8 6 6 5 5 3 4 3 4 5 5 6 6 6 7 7 7 8 7 7 6 6 6 7 7 8 8 8 9 9 9 8 8 7 7 7 6 7 6 7 6 4 4 5 5 3 4 7 8 3 2 5
10 11 9 11 12 12 12 11 9 11 11 10 9 7 8 8 9 10 9 8 8 8 8 7 7 7 8 8 8 8 8 8 8 8 6 6 5 5 5 5 3 5 5 6 5 6 6 7 7 7 7 6 6 6 6 7 7 8 8 9 9 9 8 8 8 7 7 7 7 5 6 6 6 3 3 4 4 3 5 7 5 3 4 7 3
10 11 11 11 12 14 14 13 11 10 11 10 9 8 8 8 9 10 8 7 7 7 7 7 6 7 7 8 8 8 8 8 7 8 6 5 5 5 5 4 5 4 5 6 5 6 6 6 7 7 6 7 7 7 7 7 8 8 8 9 9 7 8 8 8 7 7 6 5 6 5 6 4 4 3 5 6 6 6 6 8 5 2 5 3
11 10 12 12 12 14 13 12 10 9 11 10 9 9 8 9 9 10 9 7 8 8 7 8 7 7 7 7 8 7 8 8 7 6 7 7 5 6 4 4 5 4 6 5 6 7 6 7 7 7 7 7 7 7 7 7 8 8 8 8 8 7 8 8 7 8 8 7 5 5 5 5 5 5 5 6 5 5 5 5 6 11 9 4 8
12 11 11 12 12 12 12 11 10 9 11 9 10 9 9 9 9 10 11 9 8 8 7 8 7 6 7 9 9 9 8 8 7 6 5 6 6 6 5 4 4 5 5 6 5 6 7 7 7 7 7 7 7 7 7 7 8 9 8 8 8 5 8 8 7 7 7 5 4 3 5 5 5 6 6 6 6 5 5 5 5 4 6 9 9
12 12 10 13 12 12 11 12 10 10 10 10 10 10 10 10 10 10 9 8 8 8 8 8 7 8 7 8 9 9 10 9 9 7 7 5 6 5 5 5 4 5 6 5 7 6 7 7 8 7 7 7 7 7 7 7 8 8 8 8 8 6 7 7 6 6 4 4 4 5 5 6 5 5 5 6 6 5 6 5 5 4 3 2 7
11 10 10 12 12 12 10 12 13 12 11 11 11 9 9 9 10 11 10 11 8 9 9 8 9 8 8 8 9 9 9 8 8 8 7 7 5 5 4 5 5 5 6 5 7 7 7 7 8 7 6 7 6 6 6 7 8 8 7 7 6 6 6 5 4 5 4 4 5 6 5 5 4 5 6 5 5 5 5 5 5 5 3 4 3
11 12 11 11 11 13 12 12 13 13 11 11 10 9 9 9 9 10 10 9 9 7 8 7 8 7 7 8 9 8 8 8 7 7 6 7 6 5 5 5 6 6 7 7 7 7 7 7 7 7 7 7 6 6 6 7 7 8 7 7 6 6 6 5 3 4 3 5 5 6 5 5 4 5 5 5 5 5 5 5 5 4 4 2 3
12 13 12 11 12 14 13 13 13 14 12 11 11 9 11 10 10 9 9 8 8 8 8 8 7 8 8 8 7 8 8 8 7 7 7 6 5 7 7 6 6 6 6 7 7 7 7 7 6 7 7 7 7 6 6 7 7 7 7 7 5 6 5 5 4 3 3 5 5 5 4 4 4 4 5 5 4 4 3 4 4 4 4 3 3
12 13 13 13 12 13 13 12 11 11 11 10 10 11 10 9 10 11 12 9 9 8 8 7 8 8 10 9 8 7 8 7 7 6 7 6 6 6 6 6 6 6 6 7 7 7 7 7 7 7 7 6 6 6 5 6 7 7 6 6 5 5 5 4 4 4 4 4 5 5 4 3 3 4 4 4 4 4 4 4 4 4 5 4 2
13 13 13 14 12 12 12 11 11 11 11 11 10 10 10 10 10 10 9 9 10 8 8 8 7 8 9 9 8 6 7 7 7 6 7 7 7 7 6 6 7 5 7 7 7 6 6 7 7 7 7 6 6 6 4 6 7 7 5 5 6 5 4 4 4 4 4 4 4 4 3 3 3 3 3 4 3 4 3 5 4 4 5 6 3
14 13 13 13 13 13 13 13 13 14 12 11 10 10 11 10 10 9 10 9 8 8 8 8 8 8 8 8 8 7 7 7 8 6 7 7 7 7 6 8 7 6 5 6 6 6 7 7 7 6 6 6 6 5 4 5 5 6 6 5 5 5 5 4 4 4 4 4 4 3 2 2 2 4 4 4 3 4 3 4 5 4 5 6 6
11 11 11 12 12 12 12 13 12 12 12 11 10 9 9 10 10 10 10 10 9 8 9 9 9 9 8 8 8 7 8 7 7 7 8 7 7 6 6 8 6 6 7 5 6 6 6 7 7 6 6 5 5 5 5 4 4 5 6 6 5 4 4 4 4 4 4 4 4 3 1 1 2 4 3 4 4 4 4 5 5 6 5 7 6
12 12 12 11 12 13 13 14 12 11 11 11 10 10 10 9 9 10 9 9 8 8 9 9 10 10 8 9 8 8 8 7 8 7 9 8 8 7 6 7 7 7 6 6 6 5 6 6 7 6 5 5 4 4 6 4 3 3 4 4 4 4 4 4 4 4 4 4 3 3 1 1 1 3 3 4 4 5 5 5 6 6 6 6 6
13 13 13 14 13 12 12 13 13 12 12 11 11 10 10 10 9 9 10 9 8 8 9 9 9 10 8 9 8 7 8 8 8 8 9 8 8 7 7 5 7 8 6 6 6 5 5 6 5 5 5 5 4 4 5 4 4 4 4 4 4 4 3 4 4 4 3 3 3 2 1 0 0 2 4 4 4 5 5 6 6 7 6 6 7
15 15 13 13 13 14 14 14 14 14 12 11 11 11 11 10 10 9 9 10 9 9 9 9 9 9 9 8 8 7 8 8 8 8 8 8 8 7 7 7 5 7 7 6 5 6 4 5 4 4 5 5 4 4 4 4 4 4 4 4 4 4 4 4 4 4 3 2 3 2 1 1 1 1 3 4 4 5 5 7 6 6 7 6 7
12 12 14 15 15 15 14 14 14 14 13 11 11 11 12 11 11 10 10 9 8 9 9 9 9 9 9 8 7 7 7 8 8 8 8 8 7 7 7 6 7 7 7 6 6 6 4 4 4 4 3 4 4 4 4 4 4 3 4 4 4 4 4 4 4 3 2 1 1 2 2 2 3 3 3 4 4 5 5 7 7 6 6 7 7
15 16 16 15 15 15 15 15 14 14 15 14 12 11 10 9 10 10 10 10 10 10 9 9 9 9 8 8 7 6 7 8 8 9 8 8 7 7 7 7 6 6 5 5 4 5 6 6 4 4 3 3 5 4 3 3 4 3 4 4 4 4 4 4 4 3 2 1 0 2 2 3 3 6 7 6 7 7 5 6 7 6 6 6 7
17 17 17 17 17 15 15 15 14 16 15 14 12 12 12 12 11 10 10 9 10 10 10 9 9 9 8 7 8 7 8 8 9 9 8 8 8 7 7 7 6 6 5 4 4 4 4 5 5 4 4 4 4 2 3 4 4 4 4 4 4 4 4 3 2 2 1 1 0 1 2 4 7 9 9 9 9 11 11 8 7 6 6 6 6
16 15 15 14 14 14 14 15 16 16 16 14 13 12 12 12 11 11 11 10 10 10 10 10 9 8 8 8 8 8 8 9 8 8 8 9 8 7 8 7 6 5 5 4 4 5 4 4 5 5 5 4 3 2 4 7 7 7 5 5 5 4 4 3 3 1 0 0 0 1 2 5 5 6 6 8 11 12 12 12 12 11 10 7 6
16 16 15 14 14 15 16 16 16 15 15 13 12 12 12 12 11 11 11 10 10 10 11 10 9 9 9 9 8 8 9 9 9 9 9 8 8 8 8 7 6 5 4 4 5 4 4 4 4 5 5 4 3 3 7 9 9 9 8 6 4 5 4 3 3 2 1 0 1 2 3 3 4 4 4 5 8 12 12 12 12 12 12 13 10
17 16 17 17 17 18 17 16 15 15 15 14 14 12 12 12 13 12 11 11 11 11 11 10 9 10 9 9 8 9 9 9 9 9 9 8 9 8 8 7 6 4 4 5 4 4 4 4 5 5 4 3 3 4 8 10 10 10 9 7 5 4 5 3 3 3 1 1 0 1 3 5 5 9 6 5 5 7 10 12 11 11 11 13 13
16 17 17 16 13 11 12 14 15 15 14 14 14 15 13 12 13 12 13 12 12 11 11 11 10 10 10 9 9 9 9 9 9 9 9 9 9 8 7 6 6 4 5 5 4 5 4 4 4 5 4 3 4 4 9 10 10 9 8 7 4 5 4 3 3 3 2 2 1 1 3 5 6 6 5 5 7 6 7 7 7 7 7 10 11
16 15 13 13 13 13 12 12 13 14 12 11 11 11 10 10 12 13 11 12 11 12 11 11 11 10 10 10 10 10 10 9 9 10 9 9 9 7 7 6 6 6 6 6 6 5 4 4 4 4 4 4 2 4 9 10 9 9 8 6 4 4 4 4 3 3 3 2 1 1 2 3 5 6 5 6 6 7 6 6 6 7 8 8 8
16 18 17 15 16 17 18 17 13 13 11 12 12 11 11 11 11 12 12 11 12 12 12 11 11 11 11 11 11 10 10 9 10 9 10 9 9 9 8 6 5 4 3 4 4 4 5 4 3 4 5 4 2 4 9 10 9 8 7 4 3 4 4 3 3 2 1 1 1 2 3 4 4 5 8 11 9 6 4 6 7 7 8 8 7
15 16 17 17 15 14 13 12 12 13 13 12 10 10 11 12 12 11 12 12 12 13 12 12 12 12 11 11 11 11 11 10 10 10 9 9 9 8 6 5 6 5 5 5 5 4 4 4 4 4 6 4 3 3 8 8 8 7 6 4 3 4 3 3 2 1 1 2 2 2 3 3 4 5 9 11 10 8 5 6 7 8 7 7 9
9 8 7 8 9 9 10 12 13 13 13 12 12 12 12 12 12 11 12 12 12 12 12 12 12 11 11 11 11 11 11 10 10 10 10 9 8 7 7 6 8 7 6 5 4 4 3 3 4 4 4 5 3 3 6 6 6 5 5 4 3 5 3 2 2 2 2 2 3 6 6 3 4 5 10 11 9 6 5 6 6 8 9 9 9
11 13 14 13 12 14 14 13 13 13 12 12 14 14 13 13 12 12 12 12 13 12 13 13 12 11 11 10 10 11 11 11 10 9 10 10 9 9 7 5 6 6 6 5 4 5 3 1 2 3 6 5 4 2 4 5 4 4 3 3 4 4 4 2 2 2 2 4 4 4 7 5 5 7 10 10 9 5 4 5 5 6 8 9 9
8 8 9 10 12 13 13 14 14 13 13 14 14 13 13 12 12 12 12 12 12 11 10 9 10 10 10 10 10 11 10 11 10 9 8 9 8 8 7 6 5 5 6 5 4 4 4 2 1 1 2 3 4 1 1 2 3 3 4 3 2 5 3 1 2 2 6 5 4 5 5 8 10 10 10 10 9 7 4 4 4 5 7 10 9
12 12 12 12 13 15 16 17 14 13 13 13 13 13 12 11 11 11 12 10 8 9 10 10 10 10 10 10 9 10 11 9 9 9 8 7 8 8 8 7 6 5 5 6 5 4 4 2 1 0 1 1 1 2 0 1 1 2 2 4 2 2 2 2 3 3 2 4 6 6 5 7 10 10 9 9 8 9 8 4 4 5 4 8 9
6 11 13 12 12 11 11 11 10 14 14 13 13 13 13 12 12 13 11 8 10 10 10 10 10 10 10 10 10 9 9 9 8 9 9 8 6 8 8 7 6 6 7 6 4 4 4 3 2 1 1 2 2 2 1 2 2 1 1 2 2 1 2 3 2 1 2 3 4 4 5 7 10 9 9 8 8 8 9 4 7 9 11 12 8
12 11 11 13 12 13 13 13 11 13 13 14 15 14 12 12 13 13 10 11 11 11 11 10 11 10 10 10 9 11 9 8 8 9 10 9 7 8 7 7 7 7 7 6 5 4 4 3 3 3 3 2 2 1 2 1 2 2 2 3 3 2 3 1 1 1 2 3 3 4 5 8 9 9 7 8 7 8 6 6 11 12 12 12 9
11 13 13 13 12 12 13 12 12 12 13 13 15 14 12 12 13 9 10 11 11 11 11 11 10 10 9 9 9 10 9 8 10 9 8 9 8 7 7 7 7 7 7 7 6 5 4 4 4 4 4 3 3 2 2 3 2 3 4 4 4 4 3 2 2 2 3 3 5 4 5 10 9 7 6 7 8 6 4 8 10 11 12 9 6
14 14 12 12 14 13 11 11 11 13 12 12 12 14 14 15 10 11 12 13 12 13 13 12 12 12 12 10 9 9 9 9 9 10 9 8 8 8 8 6 7 6 6 7 6 5 6 5 4 5 5 4 4 3 3 2 3 3 4 5 6 5 4 3 1 2 2 3 5 8 9 9 7 5 6 6 5 6 8 9 9 10 8 6 7
9 10 12 11 10 11 12 13 11 12 12 11 11 13 15 13 11 12 13 13 13 13 12 11 11 11 11 10 10 9 10 10 10 9 9 8 9 8 8 7 6 6 7 7 6 6 6 5 5 5 5 5 3 3 4 3 1 2 3 5 7 5 4 4 4 4 6 7 7 7 8 6 5 4 4 3 4 4 9 8 8 7 5 6 6
14 12 12 11 11 12 12 12 12 10 11 10 11 11 12 10 12 12 12 13 13 14 12 11 11 10 10 10 11 9 9 9 9 8 7 8 8 8 7 7 7 7 7 7 6 6 6 5 5 5 5 4 4 4 4 4 3 3 3 4 5 3 3 2 2 2 3 3 3 4 4 6 5 6 4 5 4 5 5 5 6 5 5 6 6
9 11 13 11 12 12 12 12 12 11 10 10 10 10 9 9 9 10 11 13 13 12 12 11 11 11 10 11 10 13 13 9 9 9 8 8 7 8 8 9 10 9 9 7 7 7 7 7 6 6 4 4 5 4 4 6 7 5 5 4 4 2 1 1 3 4 4 4 3 4 3 2 2 3 5 6 6 5 4 3 5 5 6 5 6
11 11 12 13 12 12 12 13 12 10 11 10 10 10 10 11 11 11 13 13 12 11 11 12 12 11 11 10 10 11 10 10 9 8 8 9 10 9 9 8 7 7 8 8 7 7 7 7 7 7 7 6 6 6 8 9 7 7 7 6 6 5 3 2 3 4 3 3 3 4 5 5 5 5 4 6 6 6 6 5 4 5 6 6 6
6 8 9 8 9 11 12 12 10 10 11 11 11 10 10 11 11 11 13 13 12 11 11 12 11 11 10 10 9 10 10 10 10 9 8 3 5 3 6 9 9 8 12 13 12 9 9 8 7 8 9 10 10 12 12 11 11 10 9 9 7 4 4 3 3 3 0 1 2 3 3 3 5 4 5 5 6 6 5 6 7 6 5 6 6
9 9 7 9 8 9 9 10 10 10 11 11 11 11 11 12 12 12 13 13 13 12 11 10 11 10 10 10 9 9 9 9 9 9 8 9 6 4 7 4 1 6 9 10 12 13 13 13 11 8 8 11 9 7 9 11 11 11 9 8 7 5 5 5 3 0 1 0 2 3 6 4 3 3 4 6 4 4 5 6 6 6 6 6 6
Wind_Direction
143 144 152 154 137 130 129 128 129 129 132 141 141 144 145 143 143 142 142 144 135 130 125 129 123 113 96 100 104 98 91 84 72 65 62 55 48 49 50 48 50 55 57 68 78 88 88 87 79 66 64 71 71 63 53 44 36 36 51 43 43 39 20 1 355 326 8 2 3 34 37 75 75 62 62 50 44 38 32 31 25 24 20 17 12
135 146 155 153 141 141 139 139 143 142 151 153 156 155 150 149 146 142 141 143 136 133 128 110 114 130 129 123 113 97 95 92 91 69 68 63 52 49 54 54 56 57 56 60 68 75 79 75 70 69 69 71 70 60 50 43 36 36 23 60 35 56 42 8 357 21 37 60 6 335 0 355 75 65 62 49 42 37 33 32 24 23 20 13 9
151 158 153 153 149 150 150 153 156 155 156 164 156 146 153 153 147 146 145 137 120 115 108 112 103 102 114 119 115 101 66 82 88 82 78 74 58 53 49 49 54 53 49 57 68 65 74 77 72 72 62 67 70 56 49 46 39 39 37 69 48 36 60 26 22 36 33 313 156 79 4 357 314 16 51 51 36 34 33 30 23 20 16 13 10
164 167 164 157 152 153 155 158 158 155 157 159 156 157 157 153 150 147 139 128 123 116 108 105 108 103 93 99 89 94 111 92 80 69 66 68 61 54 51 54 56 57 49 57 65 65 70 79 81 73 68 65 75 74 59 54 42 40 39 38 54 61 31 33 27 23 35 18 26 61 337 86 356 343 346 332 15 39 34 26 21 15 8 12 11
162 169 165 147 156 165 166 161 156 157 159 161 164 163 158 155 150 146 142 140 134 131 127 125 120 105 101 94 98 95 82 82 81 57 47 68 68 49 44 52 61 64 60 62 71 72 70 75 79 77 74 66 72 74 67 56 54 49 44 52 43 71 52 42 33 29 37 33 82 50 9 24 46 288 326 292 350 31 21 22 19 12 8 10 11
170 171 163 156 159 156 158 158 165 163 165 165 158 155 150 142 137 137 133 134 133 136 138 137 134 131 130 129 125 118 114 109 105 116 80 62 68 58 50 46 62 69 63 67 69 74 73 73 77 78 74 69 68 72 68 60 49 48 38 51 52 37 88 60 46 33 45 46 49 65 90 128 323 294 40 320 346 36 38 13 12 7 0 4 11
182 175 166 161 164 153 154 157 162 161 162 157 150 146 148 141 141 139 137 132 134 136 141 137 131 136 140 141 141 144 134 101 94 85 95 82 73 62 53 42 44 64 59 62 68 73 76 75 78 77 74 71 70 70 65 59 54 50 43 51 50 49 53 68 47 1 32 40 40 53 61 55 29 33 12 284 344 323 14 5 1 1 355 3 9
176 180 181 179 173 165 153 154 160 162 158 155 146 147 149 141 137 135 136 137 136 138 142 145 140 142 135 133 135 133 129 127 120 105 89 89 79 65 61 48 41 53 65 57 61 70 77 75 77 78 77 73 72 65 66 60 61 55 55 56 58 56 59 69 63 36 58 17 22 41 39 46 46 50 38 56 269 310 312 324 74 349 351 10 10
175 180 186 186 179 164 155 156 155 154 158 157 151 147 141 136 133 134 137 137 135 138 140 147 143 144 140 134 119 106 117 117 113 101 94 86 84 65 65 56 53 51 60 66 61 70 77 84 81 80 77 73 72 70 66 63 63 65 60 58 61 59 58 63 64 50 47 31 22 19 29 32 30 42 31 26 40 344 304 1 337 337 334 1 10
182 185 183 179 176 167 161 152 151 157 143 141 139 139 140 136 136 136 136 138 137 139 143 144 143 138 136 132 129 130 123 113 109 108 98 85 86 75 65 60 56 59 57 63 72 73 80 82 81 77 77 77 74 76 75 69 66 69 69 72 68 67 57 60 66 61 57 49 48 38 36 6 23 19 26 16 24 61 350 329 343 342 344 329 350
181 177 179 169 171 165 159 163 152 144 136 138 140 142 140 139 139 139 139 138 140 143 146 147 147 146 139 139 138 137 134 128 123 111 105 95 98 85 76 64 54 68 70 64 71 76 79 80 79 78 74 75 74 72 73 78 74 74 70 67 65 69 68 70 68 64 64 58 50 50 54 49 53 52 18 15 33 4 338 330 330 335 303 316 340
172 171 172 161 162 160 164 161 154 148 148 146 145 142 142 141 143 140 142 144 143 146 148 150 147 140 135 139 140 142 141 137 130 130 126 119 117 113 100 83 67 71 74 78 69 75 81 77 76 75 73 73 74 80 77 78 76 72 69 70 69 68 71 72 71 71 67 68 60 57 61 62 57 54 31 26 27 19 6 320 337 328 303 227 295
169 171 170 165 166 153 158 156 156 156 157 152 149 144 144 145 149 144 144 143 141 141 144 144 138 139 143 141 139 138 130 126 124 121 124 126 130 121 116 114 116 87 85 88 80 81 86 80 75 76 77 76 83 80 79 76 75 76 76 74 73 72 73 75 74 70 72 74 76 64 68 59 55 38 38 32 19 360 16 353 334 314 298 310 309
174 172 175 171 167 164 160 157 165 160 153 151 151 147 150 150 150 142 137 134 130 130 134 134 134 137 139 137 134 130 123 120 121 123 129 128 127 125 131 136 124 121 106 96 99 88 78 83 85 83 82 84 84 83 81 79 78 81 80 81 81 79 78 77 79 78 74 72 71 72 58 56 48 33 30 30 21 14 10 8 334 327 256 289 311
177 178 176 173 169 163 162 162 164 158 150 149 152 150 148 148 147 136 129 133 133 133 130 127 125 121 118 119 120 120 118 116 118 128 136 132 128 127 132 136 127 123 105 103 91 88 90 86 83 81 80 81 82 82 80 77 80 83 84 86 81 80 79 78 74 78 75 72 65 68 69 51 40 27 26 23 17 20 16 354 4 356 345 327 345
180 179 171 167 164 163 158 160 157 152 150 149 150 150 149 147 143 139 135 136 134 130 128 127 123 118 118 118 118 116 115 115 117 121 123 126 133 133 138 133 128 114 96 91 82 90 89 85 78 78 80 81 83 86 84 84 84 85 83 82 83 80 86 81 82 81 78 76 76 66 63 47 34 26 23 18 18 14 10 10 17 31 24 340 337
178 176 168 162 161 161 160 155 154 152 152 155 153 153 148 143 137 129 125 124 127 126 124 122 119 116 117 119 120 119 126 132 134 134 130 126 129 134 131 132 116 99 96 91 91 85 86 86 83 78 76 81 81 81 83 82 81 86 91 91 88 83 84 87 85 82 84 79 69 59 61 55 36 28 25 24 18 15 14 11 26 33 22 14 338
174 166 162 162 162 155 154 156 155 156 153 148 149 146 144 139 135 130 129 126 124 124 123 126 122 117 119 118 120 127 130 129 131 132 132 127 127 122 121 109 103 99 96 95 91 86 81 81 83 79 76 74 77 76 80 84 88 88 92 92 97 92 87 81 82 91 81 77 66 55 54 52 33 37 30 20 21 17 15 10 8 5 37 24 322
166 166 162 160 162 156 156 157 154 150 147 144 138 141 137 131 135 131 129 127 129 123 118 113 118 120 122 124 125 123 125 125 124 126 129 130 130 119 110 113 103 100 98 97 92 87 86 80 83 81 75 74 70 71 79 84 94 98 96 97 93 94 95 92 90 89 80 74 65 61 51 50 33 38 30 20 16 16 8 6 355 358 351 358 310
171 167 165 163 163 157 156 153 153 148 146 145 143 142 137 134 127 118 115 118 118 119 121 119 119 120 119 116 116 123 126 128 131 132 132 129 122 117 118 107 108 102 98 95 92 92 91 89 82 83 80 75 72 67 77 90 93 100 106 100 101 101 98 98 82 66 77 72 71 66 52 50 30 41 29 16 10 2 6 356 347 334 321 307 291
169 166 165 162 162 155 151 149 144 137 139 142 146 145 138 133 130 133 132 130 124 126 121 123 123 123 124 125 126 125 124 123 123 129 122 118 117 112 109 115 105 99 103 95 95 95 92 91 87 81 81 78 77 72 72 90 95 102 103 110 111 106 105 99 88 66 58 69 74 75 58 39 36 47 19 7 7 360 350 343 327 325 320 305 275
167 164 162 159 157 150 143 144 140 136 142 148 146 141 140 140 139 133 128 133 132 131 129 126 125 126 126 127 124 123 124 125 126 124 116 115 113 112 116 106 99 100 102 102 99 97 95 93 90 85 81 80 77 75 77 89 102 107 110 118 117 111 105 94 85 80 61 67 81 81 46 37 28 44 13 3 354 344 340 336 329 324 307 307 292
167 163 162 160 156 152 148 148 148 144 147 150 148 150 145 141 139 139 135 137 134 131 128 127 127 126 125 124 125 126 128 129 124 117 115 115 112 110 112 106 104 97 86 97 102 98 95 93 89 84 86 80 80 83 76 93 101 113 119 123 125 121 118 112 100 95 90 91 78 76 49 20 19 33 3 340 332 325 317 325 318 313 308 301 302
162 157 158 158 153 146 147 148 147 147 152 156 152 144 141 143 143 139 137 136 133 134 133 130 128 126 127 126 128 131 129 129 118 119 117 115 112 109 109 103 104 102 97 85 89 94 92 93 93 88 86 90 88 90 87 87 110 123 126 128 125 120 119 121 120 115 111 103 112 86 44 29 34 33 344 330 319 318 320 321 313 312 304 305 298
156 155 153 149 150 154 160 154 151 152 152 154 152 148 147 146 144 140 136 136 133 135 133 131 131 130 133 133 134 136 132 124 118 119 118 116 114 112 108 110 107 100 99 99 85 86 92 92 97 102 100 94 98 103 101 99 98 112 119 124 125 125 126 124 128 135 130 123 118 124 160 71 58 25 337 339 327 330 323 318 316 309 311 301 305
156 154 153 156 160 161 162 157 151 156 160 157 154 152 150 149 148 142 140 138 138 135 133 132 134 133 135 137 139 137 134 127 123 121 122 120 117 113 110 107 114 108 97 92 98 89 99 101 103 106 105 104 102 101 104 110 108 103 98 92 89 89 102 117 114 118 132 138 134 151 187 174 91 15 338 322 324 323 317 321 317 315 310 310 304
164 162 161 158 161 166 166 162 159 157 161 161 157 157 155 152 148 145 142 139 139 136 136 135 138 137 140 142 144 141 134 127 125 125 123 119 117 117 115 114 111 110 109 105 97 100 95 106 110 109 108 116 112 104 106 105 102 96 96 96 91 97 105 115 115 126 134 145 144 151 194 220 235 274 310 317 315 323 326 318 320 312 315 312 312
163 161 163 167 168 166 165 164 160 160 159 161 162 160 159 156 150 146 143 139 141 139 140 138 140 141 142 146 145 140 128 124 125 125 123 120 118 116 114 112 109 107 109 113 118 115 112 105 111 108 116 119 111 99 93 93 91 100 105 93 96 101 116 112 111 103 107 140 172 194 203 222 240 254 273 309 324 324 320 322 317 319 315 318 317
166 172 173 169 169 172 169 165 164 160 160 162 162 160 155 150 148 149 147 147 144 141 141 142 143 144 147 145 138 131 123 124 127 124 123 122 119 117 114 111 110 109 108 112 114 116 117 107 96 102 106 100 92 88 94 108 109 88 91 88 79 82 110 128 124 117 88 69 232 235 233 250 249 311 333 326 325 323 327 321 316 319 317 320 318
175 176 177 178 175 172 169 165 165 166 163 163 163 162 160 154 152 148 144 144 142 144 143 146 146 146 144 140 136 132 129 128 130 130 127 124 121 120 116 112 112 114 116 120 115 109 108 118 115 103 91 83 77 75 78 98 110 119 103 98 87 90 101 107 125 112 87 60 214 250 278 295 329 331 323 329 328 330 330 325 313 319 318 324 318
179 176 177 176 174 172 169 169 170 169 167 166 166 164 160 153 151 151 150 151 147 146 147 148 148 147 143 138 135 136 133 133 134 128 128 125 123 121 117 115 117 121 125 125 116 111 110 111 110 106 90 78 67 67 98 108 105 105 100 94 101 91 87 103 118 140 38 351 308 316 332 326 328 327 325 325 332 330 329 327 327 325 327 328 329
179 178 175 174 177 176 175 176 172 170 167 165 165 165 160 157 153 154 152 151 149 149 150 150 148 147 143 142 140 138 134 134 134 134 132 127 124 122 120 122 122 123 123 115 110 114 115 112 103 94 89 86 77 79 97 93 89 87 92 96 91 90 86 82 99 102 122 42 320 323 325 330 316 322 337 336 330 329 329 330 329 331 328 330 323
179 177 180 181 182 181 179 173 168 171 172 171 164 163 168 159 158 156 150 154 155 154 151 149 151 148 147 143 143 139 136 137 139 136 132 129 126 124 124 127 131 136 124 119 125 117 113 111 105 102 93 84 87 86 100 94 89 89 90 95 89 88 85 82 85 89 77 53 24 335 318 327 331 343 343 333 333 326 328 327 332 331 329 326 328
180 183 184 184 178 175 174 174 173 173 171 166 169 169 169 164 156 153 157 159 155 155 152 152 152 152 148 147 145 141 138 138 139 137 135 132 130 132 132 130 128 125 126 123 119 117 119 113 114 108 105 99 90 98 99 93 91 90 92 94 100 93 92 87 80 76 65 64 64 257 319 323 329 335 332 343 337 330 328 331 333 333 326 325 323
182 182 182 179 177 172 167 166 171 171 166 162 168 165 156 154 156 158 160 155 156 152 155 155 156 152 150 149 146 142 137 139 141 140 139 136 134 132 132 139 139 145 143 141 137 130 128 119 113 116 109 92 81 105 104 97 93 92 93 94 90 90 85 74 68 61 63 62 39 260 283 301 315 328 322 353 339 329 326 326 332 330 331 321 319
185 183 182 177 175 176 176 177 168 162 164 167 168 162 157 158 159 158 157 159 157 158 158 159 158 158 156 154 150 145 141 142 144 144 142 141 140 143 143 146 134 128 122 116 113 114 121 121 120 116 102 92 68 97 99 95 93 91 93 91 96 93 86 76 55 42 35 26 24 351 350 337 326 320 323 347 342 327 328 337 336 334 329 324 320
185 183 183 182 178 174 172 161 163 166 162 168 160 158 156 154 160 164 163 162 161 163 165 165 162 160 156 156 153 147 145 147 147 147 148 147 144 141 141 139 131 140 138 139 144 132 132 130 130 121 111 107 90 98 99 96 95 99 91 88 94 91 85 78 47 0 349 354 329 347 358 343 329 321 330 342 340 337 346 339 341 335 328 327 328
178 172 160 159 162 158 159 164 164 168 168 161 156 156 158 161 166 166 165 167 168 170 166 164 164 160 153 155 154 151 150 151 151 152 151 150 146 142 146 151 144 148 148 153 137 122 135 144 137 137 136 124 117 105 101 96 97 94 103 111 107 102 78 54 13 354 339 325 338 359 3 358 335 323 330 338 345 344 350 341 341 337 338 340 333
174 172 168 163 163 164 165 166 167 169 168 161 159 159 161 167 168 169 170 171 175 169 170 166 156 153 155 156 155 154 152 153 153 152 150 150 153 153 150 145 148 146 149 141 127 124 124 112 143 149 131 120 132 115 99 102 108 110 108 110 106 100 85 35 27 2 346 13 341 348 350 344 333 328 337 339 344 352 348 345 338 338 341 338 330
164 167 166 161 155 154 166 171 173 171 162 163 161 163 167 168 169 167 173 179 178 171 156 147 151 152 152 155 156 154 153 154 152 147 149 148 146 140 147 152 158 153 144 141 127 131 139 178 222 125 117 130 138 157 98 112 101 109 121 108 105 94 99 79 31 43 15 339 344 335 339 338 334 338 337 335 339 354 356 338 351 354 342 331 323
165 165 152 160 170 173 174 174 172 163 162 163 162 162 166 167 163 168 182 179 157 137 141 144 149 153 154 154 155 156 154 153 150 149 146 143 146 147 148 154 159 156 146 140 145 144 154 192 248 273 133 171 172 171 290 62 59 67 115 122 114 129 161 118 78 33 3 331 322 322 321 316 326 331 330 331 338 345 349 344 349 350 321 306 317
163 160 161 164 168 173 172 171 166 159 162 164 165 169 171 169 171 182 178 148 142 145 147 153 151 147 151 154 155 154 151 148 146 145 148 147 147 146 153 157 157 159 160 160 154 154 160 186 231 251 230 231 258 199 204 353 319 320 274 170 137 196 171 117 75 13 314 284 271 289 302 307 317 321 325 327 336 345 343 350 336 328 328 339 339
157 170 176 165 167 171 173 170 165 164 165 168 169 172 174 171 180 179 154 146 147 151 152 148 147 161 158 157 158 155 153 149 152 155 150 151 150 147 152 155 159 165 165 164 161 156 154 169 202 245 252 262 271 292 163 189 271 278 291 249 224 192 199 135 134 280 266 271 282 284 280 292 308 315 316 329 334 339 346 337 327 335 342 341 340
175 170 169 167 169 171 170 170 167 166 169 171 172 172 173 175 184 155 146 144 149 150 144 150 153 153 153 164 163 160 155 153 153 153 154 151 154 153 153 163 167 167 167 166 165 153 155 168 193 222 244 251 252 263 248 208 208 236 269 247 229 216 188 192 181 219 255 269 286 289 292 299 302 301 324 335 329 327 328 327 335 337 341 345 343
168 170 168 170 170 170 166 168 169 167 170 172 175 172 171 179 170 149 155 155 152 152 156 159 160 164 167 163 163 163 160 156 158 156 157 160 158 155 157 171 166 170 170 169 169 161 174 190 187 206 224 233 235 232 259 244 202 237 254 248 233 210 215 196 219 260 259 262 268 279 288 289 292 324 342 338 324 317 329 335 335 335 340 350 351
153 158 166 167 162 166 167 168 171 170 169 172 175 172 173 179 159 160 159 154 152 153 157 165 165 165 163 159 161 164 163 162 160 165 163 165 164 165 165 168 173 176 176 171 169 170 183 182 199 207 215 224 221 211 240 254 235 231 259 269 253 221 209 218 235 251 258 273 276 280 282 308 344 349 339 333 321 317 317 321 330 338 346 348 350
168 165 157 164 164 168 171 167 169 172 169 172 174 180 181 166 161 159 155 153 154 159 163 162 160 155 156 162 164 166 165 164 164 163 161 164 164 166 166 171 181 181 179 177 170 177 180 187 202 210 216 220 223 222 230 244 247 255 262 261 265 254 258 268 295 287 297 289 287 311 322 316 301 303 297 286 294 316 326 337 340 336 340 343 338
159 158 166 162 166 168 165 166 170 171 169 170 175 175 166 154 151 151 151 153 156 162 165 164 158 159 163 167 170 166 164 167 169 167 163 165 169 172 174 183 188 187 180 183 178 179 184 187 198 198 197 208 226 228 231 226 231 222 236 241 252 252 240 269 306 313 324 316 315 314 312 341 348 3 352 349 339 331 311 312 327 335 336 333 336
152 162 167 170 168 167 169 168 171 169 167 169 172 167 158 155 155 154 155 156 161 162 164 162 163 164 168 171 172 172 173 169 169 171 173 171 173 179 184 195 203 188 185 180 178 184 188 193 186 180 179 200 212 223 231 208 211 198 199 212 225 233 230 250 257 300 323 349 355 354 4 355 7 347 325 323 317 331 327 321 326 343 340 338 344
152 156 165 160 165 164 165 169 169 168 168 170 170 164 159 159 160 160 160 161 161 162 167 168 168 167 166 167 171 174 175 171 166 168 152 99 24 142 186 187 200 210 202 190 176 184 191 181 183 200 186 182 195 216 212 195 207 208 211 221 229 195 197 232 278 323 43 339 345 340 301 289 302 320 312 308 310 321 326 332 327 332 339 339 340
148 143 151 157 161 163 164 166 168 168 171 172 170 165 161 161 163 164 165 166 163 167 173 168 170 173 163 169 172 172 176 173 171 165 159 157 146 72 49 62 152 190 201 201 192 202 187 181 179 194 216 233 238 220 189 198 205 208 212 226 231 216 217 237 229 120 31 269 282 305 296 303 274 269 271 275 289 311 312 322 317 318 315 323 325